Location: Chevoux
(46.3801°N, 4.9476°E)
Time: 12:49:56
(UTC+00:00)

Explorer 11/Cluster Stage 4 - All Passes

Search period start: 08 May 2021 00:00
Search period end: 18 May 2021 00:00
Orbit: 467 x 1257 km, 28.8° (Epoch: 07 May)

Date Brightness Start Highest point End Pass type
(mag) Time Alt. Az. Time Alt. Az. Time Alt. Az.
08 May - 01:35:00 10° SSW 01:36:47 11° SSW 01:38:28 10° S night (unlit)
08 May - 21:47:01 10° SSW 21:50:16 13° SSE 21:53:20 10° SE visible
08 May - 23:33:55 10° SW 23:38:04 16° S 23:41:48 10° SE night (unlit)
09 May - 01:23:35 10° SW 01:25:35 12° SSW 01:27:28 10° S night (unlit)
09 May - 21:34:58 10° SSW 21:38:59 15° SSE 21:42:45 10° SE visible
09 May - 23:22:18 10° SW 23:26:49 17° S 23:30:54 10° SE night (unlit)
10 May - 01:12:13 10° SW 01:14:21 12° SSW 01:16:22 10° S night (unlit)
10 May - 21:23:07 10° SSW 21:27:40 16° S 21:31:58 10° SE visible
10 May - 23:10:45 10° SW 23:15:33 18° S 23:19:54 10° SE night (unlit)
11 May - 01:00:56 10° SW 01:03:06 12° SSW 01:05:09 10° S night (unlit)
11 May - 21:11:22 10° SSW 21:16:21 18° S 21:21:04 10° SE visible
11 May - 22:59:14 10° SW 23:04:15 19° S 23:08:51 10° SE visible
12 May - 00:49:45 10° SW 00:51:50 11° SSW 00:53:48 10° S night (unlit)
12 May - 19:14:53 10° S 19:17:09 11° SSE 19:19:24 10° SE daylight
12 May - 20:59:42 10° SSW 21:05:00 19° S 21:10:04 10° SE visible
12 May - 22:47:46 10° SW 22:52:57 19° S 22:57:43 10° SE visible
13 May - 00:38:41 10° SW 00:40:32 11° SSW 00:42:17 10° S night (unlit)
13 May - 19:02:35 10° S 19:05:46 13° SSE 19:08:58 10° SE daylight
13 May - 20:48:07 10° SW 20:53:39 20° S 20:59:00 10° SE visible
13 May - 22:36:21 10° SW 22:41:37 19° S 22:46:32 10° SSE visible
14 May - 00:27:52 10° SW 00:29:12 11° SSW 00:30:31 10° SSW night (unlit)
14 May - 18:50:38 10° S 18:54:23 14° SSE 18:58:11 10° SE daylight
14 May - 20:36:37 10° SW 20:42:18 21° S 20:47:51 10° SE visible
14 May - 22:25:00 10° SW 22:30:16 19° S 22:35:16 10° SSE visible
15 May - 18:38:53 10° SSW 18:43:00 15° SSE 18:47:14 10° SE daylight
15 May - 20:25:10 10° SW 20:30:56 21° S 20:36:38 10° SE visible
15 May - 22:13:41 10° SW 22:18:55 19° SSW 22:23:55 10° SSE visible
16 May - 18:27:16 10° SSW 18:31:38 16° SSE 18:36:09 10° SE daylight
16 May - 20:13:47 10° SW 20:19:34 22° S 20:25:21 10° SE visible
16 May - 22:02:26 10° SW 22:07:33 18° SSW 22:12:30 10° SSE visible
17 May - 18:15:45 10° SSW 18:20:16 17° SSE 18:24:59 10° SE daylight
17 May - 20:02:28 10° SW 20:08:11 22° S 20:14:00 10° SE visible
17 May - 21:51:15 10° SW 21:56:10 17° SSW 22:01:00 10° SSE visible
